Temp
66 66 66 66 66 66 66 66 65 65 65 65 65 65 65 65 65 65 65 65 65 65 65 65 65 65 65 63 64 82 82 84 83 80 78 78 77 76 69 74 75 69 73 79 82 77 81
66 66 66 65 66 66 66 65 65 65 65 65 64 65 65 65 64 64 64 64 64 65 64 64 65 65 62 52 79 85 86 85 84 79 78 81 79 82 77 75 72 76 75 77 77 78 80
66 66 66 66 66 66 66 66 65 64 64 64 64 64 65 64 64 64 64 64 64 64 64 64 65 66 60 58 79 81 81 82 85 83 78 84 85 81 79 73 77 75 68 69 70 72 74
66 65 65 65 66 66 65 65 65 64 64 64 64 64 64 64 64 63 63 63 63 63 63 64 65 64 55 76 81 80 81 79 83 86 84 86 87 81 78 78 74 67 66 58 66 70 69
65 65 65 65 65 65 66 65 64 64 64 64 64 63 63 64 63 63 63 63 63 63 64 65 63 63 57 79 74 79 81 77 82 84 84 88 83 75 75 67 62 63 55 58 63 70 67
65 64 64 65 64 65 65 65 64 64 63 63 64 62 62 62 63 62 62 62 64 65 68 70 69 59 66 70 78 81 83 81 79 79 77 76 73 68 67 63 52 58 59 61 60 64 64
64 64 64 64 64 64 64 64 63 63 63 62 62 62 62 62 62 62 62 67 66 59 63 61 64 62 68 77 82 79 85 80 79 75 64 70 62 59 65 67 69 69 64 61 61 67 62
64 64 64 64 63 63 63 63 63 63 63 62 62 62 61 61 61 60 61 62 67 67 55 68 69 68 73 76 67 77 84 72 70 63 68 63 58 69 73 73 70 70 65 60 61 66 63
64 64 64 64 63 63 62 62 62 62 62 62 62 61 61 61 60 60 63 66 74 72 56 64 72 70 72 75 68 73 77 73 67 63 64 60 67 74 73 70 68 67 63 63 62 63 63
64 64 64 63 63 62 62 61 61 61 61 62 61 61 61 61 57 70 67 75 75 73 47 59 65 70 74 74 68 80 79 73 70 63 65 67 70 70 68 65 67 60 70 67 65 58 50
64 64 63 63 63 62 61 61 61 61 61 61 61 60 60 60 60 63 67 71 72 66 38 64 66 80 76 68 68 71 78 71 63 67 67 63 62 63 64 64 70 62 67 62 62 57 55
63 64 63 62 62 62 61 60 60 61 60 60 61 60 60 63 63 67 71 71 66 46 41 58 67 65 64 68 69 72 70 74 73 67 64 66 73 68 67 67 68 68 63 62 59 55 44
63 63 62 62 62 62 61 61 61 61 61 60 60 60 60 68 67 74 73 64 47 39 61 55 59 64 64 62 65 66 64 62 58 54 55 62 63 66 68 59 64 63 56 44 41 41 42
63 63 62 62 62 61 61 61 60 60 60 60 60 59 61 65 72 72 68 57 42 55 55 59 62 62 56 60 63 63 62 57 64 59 57 52 48 60 66 62 58 58 56 47 39 41 45
63 63 62 62 62 61 61 61 60 60 60 59 59 63 61 71 72 71 60 51 53 56 62 57 53 52 49 57 61 62 60 59 59 61 52 52 52 63 65 66 62 58 50 58 51 52 45
63 63 62 62 61 61 60 61 60 60 60 59 61 63 68 79 76 68 58 53 60 64 62 59 44 51 42 52 57 57 58 60 60 62 62 60 49 61 61 64 62 59 61 49 50 40 37
63 63 62 62 61 60 60 60 60 60 60 58 60 60 71 76 74 63 53 60 65 68 64 60 58 53 54 55 56 56 58 58 61 61 60 60 58 52 58 55 55 54 53 54 52 50 40
63 63 63 62 61 60 60 60 60 59 58 57 61 56 72 75 58 63 61 64 57 67 66 63 62 62 59 57 51 54 58 57 59 60 58 58 54 50 53 58 61 58 56 57 45 44 47
62 62 62 62 61 60 59 59 59 58 55 64 59 62 73 71 53 60 67 67 66 64 64 64 62 63 64 59 54 58 58 56 58 58 53 55 53 45 45 50 54 52 57 57 55 49 43
62 62 62 62 61 60 59 59 59 58 57 62 59 56 63 65 64 60 60 63 64 63 63 65 63 63 61 58 60 56 56 56 57 59 56 54 54 51 43 48 54 50 55 56 52 41 45
61 61 61 61 61 60 60 60 59 58 58 62 60 57 64 56 60 62 64 64 62 61 63 64 61 61 59 56 57 56 56 54 57 56 57 55 50 54 54 55 56 54 55 54 50 51 43
61 61 61 61 60 60 60 60 59 58 57 60 57 59 60 56 64 62 60 61 61 64 64 62 58 62 60 56 55 53 57 57 55 55 54 56 49 51 50 55 53 51 54 54 54 54 52
61 61 60 61 60 59 60 59 58 57 55 60 65 65 60 54 57 59 60 63 63 66 63 64 61 60 58 57 60 59 60 59 59 55 53 53 50 47 42 51 51 45 51 53 54 54 51
60 60 60 60 60 59 59 59 59 57 55 60 64 61 55 51 56 58 64 65 61 63 61 62 62 59 57 63 63 62 60 60 59 56 56 52 51 46 38 45 33 47 54 55 55 56 54
60 60 60 60 60 59 59 59 59 58 56 58 61 59 55 50 57 59 63 63 63 59 59 60 59 60 62 59 54 50 49 51 52 54 53 53 51 41 36 37 47 47 51 50 48 49 55
60 60 60 60 60 59 58 58 59 59 57 57 60 62 57 50 52 62 58 63 57 56 54 55 59 62 59 54 52 42 40 51 45 47 52 53 52 45 40 32 30 46 53 56 53 38 53
59 59 60 60 59 59 58 58 58 58 57 57 59 63 57 49 56 60 56 55 63 61 55 55 55 54 57 52 46 43 47 54 45 46 42 44 43 37 39 34 42 52 54 54 36 41 53
59 59 59 59 59 59 59 57 56 55 56 55 57 63 57 52 55 60 60 56 58 59 54 55 54 54 51 47 47 48 45 49 48 50 46 43 38 37 40 33 32 54 51 44 49 51 54
59 59 59 59 59 58 58 58 58 57 56 54 52 63 64 53 55 59 61 61 58 58 53 57 56 57 57 52 52 49 45 46 47 42 49 40 49 43 43 42 52 54 50 52 54 53 50
MSLP
1020.33 1020.27 1020.16 1020.02 1019.86 1019.70 1019.54 1019.37 1019.31 1019.20 1019.07 1018.93 1018.75 1018.51 1018.23 1017.96 1017.82 1017.64 1017.43 1017.19 1016.94 1016.72 1016.53 1016.31 1016.04 1015.75 1015.15 1013.19 1010.81 1008.45 1008.35 1008.24 1008.28 1008.73 1008.70 1008.23 1007.78 1007.55 1007.62 1007.51 1007.64 1007.92 1007.35 1007.05 1006.26 1006.62 1005.94
1020.30 1020.21 1020.05 1019.91 1019.77 1019.55 1019.45 1019.29 1019.17 1019.04 1018.95 1018.83 1018.71 1018.51 1018.23 1017.92 1017.79 1017.65 1017.40 1017.09 1016.80 1016.58 1016.41 1016.23 1015.96 1015.81 1014.97 1012.62 1009.71 1008.82 1008.15 1008.17 1007.89 1008.20 1008.03 1007.60 1007.06 1006.76 1006.96 1007.13 1007.55 1007.56 1007.20 1007.54 1007.44 1007.28 1006.82
1020.24 1020.12 1019.97 1019.76 1019.58 1019.39 1019.20 1019.06 1019.02 1018.97 1018.91 1018.80 1018.63 1018.45 1018.18 1017.91 1017.71 1017.57 1017.31 1016.95 1016.64 1016.41 1016.19 1015.97 1015.77 1015.48 1014.10 1011.41 1009.48 1008.66 1008.60 1008.11 1007.66 1007.45 1007.39 1007.03 1006.71 1006.41 1006.73 1007.14 1007.44 1007.96 1008.27 1008.39 1008.52 1008.34 1008.10
1020.17 1020.05 1019.88 1019.67 1019.45 1019.26 1019.06 1019.02 1018.93 1018.91 1018.82 1018.72 1018.54 1018.36 1018.13 1017.84 1017.63 1017.46 1017.18 1016.78 1016.38 1016.07 1015.88 1015.69 1015.57 1015.19 1012.59 1009.57 1009.00 1008.53 1008.30 1008.26 1007.80 1007.09 1007.00 1006.54 1006.39 1006.37 1006.57 1007.26 1007.85 1008.48 1008.76 1009.02 1009.09 1009.07 1009.63
1020.43 1020.15 1019.87 1019.66 1019.39 1019.14 1019.00 1018.96 1018.86 1018.79 1018.72 1018.64 1018.41 1018.32 1018.09 1017.75 1017.51 1017.24 1016.85 1016.31 1015.79 1015.61 1015.48 1015.36 1015.21 1014.08 1010.86 1008.32 1007.87 1007.74 1007.72 1007.50 1006.93 1006.92 1006.84 1006.44 1006.41 1006.55 1006.92 1007.34 1007.86 1008.35 1008.53 1009.02 1009.45 1009.71 1009.77
1020.60 1020.35 1020.04 1019.65 1019.40 1019.16 1019.12 1018.95 1018.84 1018.71 1018.64 1018.59 1018.36 1018.24 1018.05 1017.67 1017.32 1017.02 1016.61 1015.72 1014.56 1015.05 1014.41 1014.35 1013.91 1013.27 1010.05 1007.50 1006.67 1006.49 1006.78 1006.93 1006.43 1006.52 1006.69 1006.51 1006.51 1006.32 1006.74 1006.99 1006.71 1007.24 1007.94 1008.48 1008.89 1009.52 1010.04
1020.73 1020.44 1020.20 1019.87 1019.50 1019.17 1019.02 1018.95 1018.91 1018.80 1018.67 1018.53 1018.37 1018.18 1017.88 1017.57 1017.31 1017.07 1016.48 1014.42 1013.99 1014.42 1013.76 1012.43 1011.44 1010.72 1009.02 1007.90 1006.70 1005.92 1005.52 1006.11 1005.96 1006.28 1006.37 1006.38 1006.36 1005.64 1005.95 1006.24 1006.28 1006.06 1006.75 1007.73 1008.67 1009.17 1010.03
1020.75 1020.48 1020.12 1019.90 1019.64 1019.35 1019.06 1018.96 1018.87 1018.79 1018.64 1018.46 1018.30 1018.11 1017.82 1017.49 1017.29 1017.10 1016.93 1015.14 1013.79 1014.08 1012.47 1010.91 1009.97 1009.60 1008.82 1008.27 1007.18 1005.40 1005.32 1005.96 1005.89 1006.04 1006.18 1006.48 1005.76 1005.38 1005.41 1005.26 1005.48 1005.54 1006.14 1007.39 1008.87 1009.70 1009.75
1020.46 1020.33 1020.04 1019.85 1019.63 1019.49 1019.29 1019.03 1018.95 1018.85 1018.64 1018.44 1018.15 1017.99 1017.87 1017.49 1017.21 1016.91 1015.82 1014.85 1014.13 1013.92 1012.72 1009.48 1008.46 1008.08 1007.63 1007.14 1006.49 1005.44 1005.87 1005.72 1005.83 1006.05 1005.96 1005.69 1005.31 1004.93 1004.71 1004.55 1004.99 1005.48 1006.04 1006.63 1007.88 1008.97 1009.44
1020.28 1020.08 1019.87 1019.66 1019.53 1019.29 1019.22 1019.36 1019.02 1018.89 1018.72 1018.51 1018.18 1017.88 1017.84 1017.57 1017.53 1015.43 1014.83 1014.15 1013.92 1013.85 1012.51 1009.13 1007.93 1007.20 1007.10 1006.86 1006.06 1005.60 1006.02 1006.09 1005.59 1005.68 1005.52 1005.11 1005.19 1004.65 1004.77 1004.94 1005.44 1005.65 1006.14 1006.92 1007.61 1008.85 1009.43
1020.25 1020.03 1019.80 1019.73 1019.38 1019.12 1018.92 1019.07 1019.27 1018.90 1018.68 1018.60 1018.35 1018.00 1017.91 1017.89 1017.20 1015.77 1015.36 1014.96 1014.30 1013.87 1011.60 1008.62 1007.46 1007.05 1006.77 1007.05 1006.83 1006.31 1006.52 1006.38 1005.83 1005.24 1005.80 1005.19 1005.79 1005.56 1005.28 1005.56 1005.62 1006.36 1006.71 1007.44 1008.09 1008.82 1009.21
1020.19 1019.96 1019.71 1019.59 1019.40 1019.14 1019.02 1018.20 1018.79 1019.07 1018.73 1018.48 1018.40 1018.28 1018.03 1017.28 1016.75 1015.43 1015.19 1015.08 1014.54 1013.63 1010.38 1008.79 1007.79 1007.11 1007.25 1007.02 1006.56 1006.71 1006.80 1006.70 1005.98 1005.61 1005.92 1006.09 1005.61 1006.09 1006.08 1006.48 1006.42 1007.01 1007.55 1007.96 1008.44 1009.10 1009.36
1020.33 1020.11 1019.94 1019.46 1019.31 1019.08 1018.90 1018.63 1018.24 1018.48 1018.74 1018.40 1018.17 1018.19 1018.20 1016.93 1015.04 1014.73 1014.58 1014.33 1013.72 1012.59 1010.30 1009.70 1008.56 1008.04 1007.52 1007.31 1006.87 1006.93 1006.87 1006.78 1006.43 1006.29 1006.41 1006.66 1006.69 1007.01 1006.84 1007.33 1007.41 1007.44 1007.85 1008.58 1009.31 1009.45 1009.09
1020.05 1020.09 1019.94 1019.82 1019.34 1019.02 1018.66 1018.50 1018.17 1018.07 1018.23 1018.39 1017.95 1017.91 1017.46 1016.75 1015.26 1014.97 1014.51 1013.60 1012.35 1010.81 1010.00 1010.08 1009.39 1008.78 1008.64 1008.47 1007.37 1007.41 1007.10 1007.12 1006.93 1007.41 1006.80 1006.88 1007.67 1007.59 1007.31 1007.32 1007.58 1007.94 1007.98 1008.05 1008.29 1008.52 1009.01
1019.60 1019.63 1019.71 1019.66 1019.49 1019.20 1018.82 1018.28 1018.08 1017.88 1017.94 1017.96 1017.99 1017.03 1016.70 1014.69 1014.85 1014.99 1014.45 1012.35 1010.36 1010.05 1009.95 1010.49 1010.95 1010.43 1010.16 1009.10 1008.44 1007.44 1007.46 1007.46 1007.70 1007.86 1008.03 1007.12 1007.80 1008.18 1007.90 1007.84 1008.12 1008.14 1008.27 1008.40 1008.24 1008.12 1008.78
1019.47 1019.46 1019.43 1019.37 1019.42 1019.20 1018.93 1018.47 1018.12 1017.74 1017.62 1017.88 1017.81 1016.48 1014.32 1013.27 1014.05 1014.32 1013.55 1010.99 1009.65 1009.64 1010.07 1010.14 1011.12 1011.40 1011.13 1009.76 1008.65 1008.17 1007.76 1008.41 1008.25 1008.42 1008.46 1007.35 1007.94 1008.45 1008.63 1008.50 1008.40 1008.30 1008.44 1008.66 1008.71 1008.90 1009.05
1019.34 1019.17 1019.17 1019.23 1019.19 1019.16 1019.02 1018.50 1018.29 1017.92 1017.38 1017.53 1017.83 1015.97 1013.58 1013.52 1014.09 1013.47 1012.06 1010.05 1009.21 1009.30 1009.66 1009.72 1009.47 1009.81 1009.91 1009.24 1009.07 1008.78 1008.41 1009.23 1009.10 1008.70 1008.59 1008.10 1007.39 1009.13 1009.01 1008.75 1008.31 1008.74 1008.53 1008.66 1008.87 1009.03 1009.36
1019.30 1018.99 1019.01 1019.03 1019.03 1018.96 1018.91 1018.62 1018.29 1018.02 1017.70 1017.36 1017.02 1015.35 1013.69 1013.66 1013.60 1011.64 1009.97 1009.48 1009.27 1008.93 1009.23 1009.39 1009.29 1008.94 1008.85 1009.30 1009.22 1009.19 1008.87 1009.60 1010.08 1009.80 1009.00 1008.91 1008.59 1008.61 1009.01 1008.97 1008.84 1008.60 1008.41 1008.47 1009.12 1009.47 1009.68
1019.14 1019.08 1018.82 1018.77 1018.88 1018.95 1018.77 1018.51 1018.31 1018.01 1017.82 1017.04 1016.19 1014.75 1013.62 1013.48 1012.55 1010.48 1009.06 1008.66 1008.87 1008.85 1008.95 1008.90 1008.65 1008.78 1008.69 1008.76 1008.68 1008.64 1009.41 1010.60 1010.60 1010.29 1010.29 1009.94 1008.81 1008.90 1009.32 1009.50 1009.19 1008.94 1008.66 1008.77 1009.13 1009.81 1010.26
1019.04 1018.91 1018.78 1018.66 1018.68 1018.74 1018.68 1018.56 1018.26 1018.11 1017.79 1017.39 1016.45 1014.40 1013.33 1013.08 1011.97 1011.12 1009.80 1008.74 1008.40 1008.83 1008.99 1009.02 1008.87 1008.77 1008.62 1008.44 1008.67 1008.90 1009.67 1010.57 1010.84 1010.66 1010.59 1010.28 1009.46 1009.01 1009.23 1009.01 1008.59 1008.87 1008.82 1009.20 1009.66 1010.12 1010.16
1018.81 1018.77 1018.75 1018.68 1018.38 1018.41 1018.49 1018.47 1018.34 1018.13 1017.81 1017.64 1016.28 1014.75 1013.36 1012.40 1011.29 1010.54 1009.85 1009.16 1008.60 1008.60 1008.91 1008.97 1008.56 1008.72 1008.86 1008.65 1008.65 1009.03 1009.83 1010.59 1010.84 1010.87 1010.56 1010.45 1010.00 1009.44 1009.36 1009.34 1009.17 1009.08 1009.15 1009.45 1009.77 1009.88 1010.26
1018.57 1018.68 1018.56 1018.45 1018.31 1017.92 1018.08 1018.28 1018.29 1018.29 1018.19 1017.48 1015.99 1014.63 1014.37 1013.48 1011.64 1010.60 1009.51 1008.83 1008.64 1008.39 1008.55 1008.54 1008.95 1008.72 1008.98 1009.16 1009.55 1009.57 1009.65 1010.14 1010.27 1011.01 1010.76 1010.60 1010.42 1010.05 1009.70 1009.79 1009.79 1009.68 1009.54 1009.54 1009.61 1009.89 1010.11
1017.91 1017.99 1018.14 1018.13 1018.09 1017.94 1017.84 1018.03 1018.17 1018.29 1018.47 1017.20 1015.92 1015.41 1015.13 1013.75 1012.37 1010.87 1009.85 1008.88 1008.48 1008.44 1008.96 1009.20 1009.45 1009.32 1009.55 1009.87 1009.84 1009.89 1009.84 1010.11 1010.17 1010.60 1010.79 1010.80 1010.71 1010.66 1010.38 1010.37 1010.12 1009.98 1009.60 1009.49 1009.58 1009.70 1010.17
1017.33 1017.44 1017.53 1017.57 1017.59 1017.72 1017.56 1017.67 1017.97 1018.23 1018.36 1017.72 1016.26 1016.08 1015.28 1013.72 1012.86 1011.25 1009.80 1009.22 1009.19 1008.99 1009.34 1009.88 1010.07 1010.01 1010.67 1010.39 1010.28 1010.19 1010.29 1010.49 1010.71 1010.94 1011.02 1011.10 1011.15 1011.33 1011.34 1010.96 1010.85 1010.48 1010.15 1009.84 1009.43 1009.90 1010.20
1016.72 1016.83 1016.90 1017.18 1017.21 1017.37 1017.39 1017.29 1017.47 1017.84 1018.12 1018.07 1017.29 1016.66 1015.75 1014.35 1013.26 1011.67 1010.27 1009.47 1009.61 1009.92 1010.15 1010.63 1011.22 1011.19 1010.92 1010.88 1010.71 1010.72 1010.82 1010.97 1011.26 1011.55 1011.55 1011.56 1011.47 1011.89 1012.15 1011.83 1011.12 1011.08 1010.71 1010.50 1010.27 1010.40 1010.41
1016.08 1016.27 1016.28 1016.45 1016.82 1016.91 1017.11 1017.08 1017.14 1017.42 1017.73 1018.00 1017.26 1016.89 1016.28 1015.49 1013.25 1012.16 1011.51 1010.06 1009.84 1010.12 1010.85 1011.52 1011.92 1011.71 1011.66 1011.34 1010.83 1010.52 1010.28 1010.03 1011.04 1011.77 1012.00 1011.98 1011.96 1012.32 1012.71 1012.80 1012.14 1011.10 1011.05 1011.02 1011.06 1011.22 1010.89
1015.42 1015.64 1015.67 1015.84 1016.20 1016.42 1016.64 1016.76 1016.85 1017.00 1017.28 1017.65 1016.88 1016.47 1016.18 1015.36 1013.98 1013.16 1012.36 1011.68 1010.43 1010.28 1010.56 1011.49 1012.05 1012.12 1012.02 1011.24 1010.88 1010.70 1010.04 1009.93 1010.30 1010.77 1011.64 1012.00 1012.35 1012.72 1012.90 1012.89 1011.97 1011.27 1011.38 1011.52 1011.88 1011.92 1011.34
1014.71 1015.05 1015.06 1015.23 1015.58 1015.89 1016.13 1016.35 1016.63 1016.87 1016.91 1017.33 1016.45 1016.06 1016.00 1014.81 1014.20 1013.71 1013.29 1012.88 1012.04 1011.45 1011.24 1011.61 1012.00 1011.71 1011.77 1011.31 1010.63 1010.34 1010.37 1010.20 1010.16 1010.33 1010.90 1011.46 1012.07 1012.50 1012.67 1012.63 1012.26 1011.53 1012.03 1012.09 1011.67 1011.62 1011.99
1014.01 1014.30 1014.41 1014.54 1014.96 1015.28 1015.61 1015.82 1016.07 1016.42 1016.47 1016.93 1016.54 1015.60 1015.37 1015.18 1014.15 1014.09 1013.63 1013.44 1013.49 1013.21 1012.78 1011.63 1011.19 1010.64 1010.49 1010.54 1010.06 1010.31 1010.51 1010.60 1010.47 1010.59 1010.88 1011.21 1011.17 1011.49 1011.67 1011.65 1011.37 1011.28 1011.39 1011.58 1011.72 1012.07 1012.56
Wind_Speed
8 9 9 10 10 9 11 10 9 10 10 11 11 12 11 11 9 8 9 10 12 13 14 14 15 15 12 10 16 26 22 8 5 14 18 16 14 12 9 4 7 9 12 10 7 2 4
9 10 10 8 10 10 10 10 11 11 11 9 11 12 11 11 7 8 10 11 12 13 13 14 15 15 13 22 14 18 16 9 8 15 17 16 13 13 8 9 6 5 2 5 4 2 4
8 8 10 11 11 11 11 11 10 9 9 10 11 11 11 10 7 9 12 14 15 15 15 16 15 12 16 25 16 21 21 9 13 14 17 15 15 13 9 5 7 4 1 4 3 3 6
8 8 11 11 12 12 11 9 9 10 9 9 10 11 12 11 9 10 14 16 16 16 17 16 14 11 12 17 14 20 19 16 18 12 13 12 12 11 10 7 4 3 2 3 2 3 1
11 11 11 13 12 13 11 13 10 9 8 9 9 10 11 9 10 14 16 18 21 19 17 15 10 12 15 15 15 18 17 16 13 13 13 12 5 8 7 7 6 6 6 8 8 4 3
13 13 13 12 13 12 13 13 11 10 9 9 8 9 10 9 9 12 15 23 19 11 12 10 10 12 12 8 12 13 17 16 12 13 12 10 7 10 9 10 10 11 13 9 12 8 5
13 13 14 15 13 10 11 12 12 10 9 8 8 9 8 9 10 12 13 9 1 5 8 9 8 11 21 17 19 8 12 14 12 12 11 14 11 14 16 17 16 14 5 5 5 5 5
13 14 14 14 15 12 10 11 11 10 9 8 9 8 9 9 11 9 7 7 8 7 13 15 20 21 20 15 10 11 11 10 12 13 16 8 14 15 17 16 18 13 8 11 10 6 4
11 13 13 14 14 14 12 10 10 10 10 10 9 8 10 9 11 7 6 14 9 9 6 11 10 8 7 4 9 11 4 11 8 13 14 13 12 18 15 13 13 10 6 4 9 7 3
9 11 12 12 13 12 11 11 9 10 11 11 10 9 10 10 5 7 5 8 9 7 4 5 4 5 3 6 2 6 11 5 7 15 14 13 5 11 5 8 5 8 10 1 7 5 5
10 10 11 12 12 11 8 9 10 9 11 11 12 9 10 6 10 5 8 10 10 3 4 4 4 0 3 4 2 4 2 6 9 12 9 4 6 2 7 4 8 2 5 5 6 7 6
9 10 9 10 12 11 10 5 6 10 10 10 14 12 8 7 6 9 9 9 6 4 5 3 3 3 4 6 2 3 3 6 8 10 3 2 5 4 1 7 6 9 5 4 1 2 4
10 10 10 9 10 11 10 10 5 6 11 11 11 12 8 10 4 5 7 6 3 5 10 12 7 2 7 0 3 6 7 7 4 3 5 6 5 2 7 5 3 6 7 3 3 3 4
8 10 9 10 9 10 9 10 9 5 7 12 10 10 11 11 10 12 8 4 3 6 2 5 9 8 7 6 2 5 11 7 7 4 6 6 5 7 4 1 5 7 3 3 3 3 4
6 7 8 9 9 10 10 9 9 5 6 8 9 5 7 8 14 6 5 6 4 3 5 13 14 10 10 10 8 4 9 6 4 6 3 5 5 4 5 3 4 5 3 2 3 5 2
7 6 6 7 9 8 10 10 9 4 5 5 4 6 12 8 6 5 5 9 4 2 3 9 10 8 5 14 9 3 5 3 3 3 4 5 6 1 2 2 1 4 3 1 2 3 4
8 6 5 6 6 6 9 9 11 5 4 6 2 5 4 7 6 5 6 10 3 4 3 4 6 12 11 3 3 4 3 1 4 4 2 6 2 3 3 5 3 3 2 3 1 2 1
10 10 6 5 5 4 6 9 9 6 3 4 1 5 4 5 5 6 7 2 2 4 4 5 4 7 3 4 4 4 2 4 5 6 4 2 4 4 4 3 4 4 3 7 3 2 2
9 12 9 5 4 5 4 5 7 4 2 1 3 7 5 5 6 9 12 4 2 2 3 2 3 1 3 3 4 2 4 1 3 4 4 6 4 4 3 1 1 3 3 4 4 3 3
8 8 10 9 5 4 3 4 5 4 3 2 3 4 4 6 8 16 14 13 10 1 3 3 3 1 4 4 3 1 2 2 2 4 5 3 4 3 2 4 2 4 4 4 4 2 3
7 7 7 8 8 6 4 2 3 3 5 4 3 5 6 5 7 13 13 11 14 7 4 3 3 4 5 4 2 3 5 1 1 2 2 3 3 5 6 3 4 4 5 7 7 6 3
9 8 6 6 8 5 4 4 1 1 5 4 3 3 6 11 15 14 11 11 14 14 2 3 4 3 3 1 5 6 5 4 3 2 2 2 2 2 3 4 1 3 5 6 6 6 6
10 8 7 6 5 6 6 5 4 4 6 4 3 8 6 7 12 11 10 13 5 6 3 2 6 4 4 3 4 3 5 5 4 4 4 3 1 1 2 1 4 6 2 8 5 4 1
12 10 8 7 7 5 7 7 7 7 9 7 5 4 4 9 10 14 13 8 8 6 6 3 4 4 2 3 3 4 5 5 6 6 5 2 2 1 2 3 3 2 4 6 2 3 4
13 12 9 9 8 4 6 5 9 10 9 5 6 4 3 8 11 18 18 8 3 2 2 1 4 4 2 1 2 3 2 3 4 4 4 4 2 2 1 3 2 3 3 1 2 2 6
15 14 13 11 9 7 3 4 5 9 10 5 6 6 3 5 9 11 18 10 4 5 3 2 1 1 1 3 3 2 5 3 5 5 2 4 3 1 2 1 5 2 4 1 3 2 2
17 16 14 13 11 8 7 6 8 6 11 6 5 9 5 6 11 11 7 6 3 6 3 5 4 4 2 3 3 2 2 3 3 5 4 2 1 4 4 3 6 5 7 2 2 6 4
17 17 16 14 12 9 9 7 3 3 4 7 5 8 8 5 14 11 6 5 8 4 2 5 4 4 3 3 2 3 2 1 1 3 4 5 5 3 2 2 7 8 4 4 4 3 5
18 18 16 15 13 11 10 9 11 9 3 3 4 6 7 4 4 1 6 6 5 4 4 4 4 3 4 3 1 3 1 1 1 2 3 2 2 2 7 5 4 8 2 3 3 4 3
Wind_Direction
349 348 341 333 325 320 321 321 317 316 315 327 324 327 318 321 325 333 331 327 324 323 323 323 322 324 321 266 246 290 297 332 243 196 219 226 221 215 224 228 217 228 266 295 53 308 301
355 341 337 321 316 316 313 316 312 315 317 325 323 326 321 326 313 318 319 317 315 315 314 314 315 322 284 274 260 265 262 301 242 196 213 230 233 219 217 228 233 353 125 270 17 274 6
339 331 333 326 325 322 315 314 308 322 324 324 324 323 322 328 310 311 314 314 312 310 308 305 306 302 280 257 283 299 311 293 294 202 224 224 239 249 207 264 108 4 259 81 242 231 51
358 350 338 333 328 318 316 325 322 321 317 320 322 326 329 319 309 308 311 306 299 294 293 290 297 290 266 265 259 257 257 267 269 252 244 258 230 246 192 112 116 178 252 158 103 56 52
358 357 353 345 332 325 327 317 319 320 316 321 322 328 322 323 325 313 307 299 288 285 280 280 270 227 276 275 231 238 254 236 226 224 227 248 201 216 179 190 177 187 196 215 154 112 99
355 351 347 348 342 337 327 323 318 315 320 319 324 319 315 321 313 305 303 285 269 283 260 244 243 283 254 328 332 209 206 227 229 202 192 216 204 198 185 199 200 197 210 238 203 170 131
351 351 347 345 343 347 339 328 322 316 315 317 322 313 310 315 318 313 317 308 298 189 222 251 203 236 295 316 314 239 205 201 218 192 189 198 205 204 192 203 226 220 186 220 119 122 163
352 351 349 348 349 345 349 339 327 319 311 311 307 302 307 314 309 314 301 287 33 332 302 276 250 255 273 279 294 221 170 193 203 191 214 184 210 207 219 209 218 237 209 185 88 177 145
351 349 352 355 354 350 348 348 334 321 314 306 302 296 294 308 317 285 241 296 327 334 278 303 229 246 257 257 250 140 219 217 202 204 202 191 204 234 213 214 208 223 253 202 162 155 214
345 349 355 360 356 358 355 345 336 329 318 303 295 302 297 317 299 333 293 19 337 320 279 160 193 179 194 243 260 63 193 238 188 208 224 220 359 210 213 169 213 212 206 227 134 152 229
338 346 355 353 359 3 8 357 331 326 325 306 295 294 302 294 323 305 9 338 324 235 342 12 99 20 357 317 215 147 103 287 272 212 203 185 172 205 187 192 203 97 86 173 197 199 257
326 336 347 352 351 3 1 37 342 321 318 311 299 290 301 243 223 248 303 307 285 260 39 71 355 200 172 237 189 117 176 244 290 265 60 54 39 145 152 64 32 130 144 105 95 247 252
321 330 335 349 350 359 6 4 359 327 315 316 297 284 268 303 277 326 301 294 304 347 4 349 352 21 264 166 298 172 190 217 222 126 201 152 89 54 144 94 67 232 156 155 190 178 238
315 327 330 334 343 353 5 5 1 333 312 309 309 296 265 239 292 329 304 263 257 317 306 217 349 315 34 330 267 177 191 219 228 297 162 196 158 166 182 6 185 204 252 256 257 164 131
294 310 319 328 334 346 352 7 4 359 323 323 316 276 255 252 222 240 274 260 10 355 26 51 15 353 355 308 277 253 191 243 40 18 296 192 92 72 19 12 353 150 212 1 343 295 338
274 287 307 319 327 337 348 359 360 23 12 5 307 296 267 228 162 201 260 273 6 40 118 132 165 174 169 273 270 322 179 6 341 42 343 311 115 24 101 276 92 19 342 118 232 239 223
292 276 291 306 314 325 342 0 357 1 65 99 271 269 91 121 180 225 255 287 352 110 172 232 289 193 226 245 34 297 22 62 3 322 301 306 199 132 159 211 147 148 213 243 327 255 11
351 345 273 281 287 305 339 356 3 357 114 133 275 275 139 190 238 223 251 22 282 316 153 255 253 275 115 132 267 260 49 60 351 324 305 87 304 131 86 53 10 333 295 190 170 208 219
343 354 329 240 255 287 323 0 1 6 316 359 251 269 168 211 266 257 275 198 214 261 253 294 277 265 14 263 265 26 78 30 7 343 11 349 274 121 154 150 62 259 202 299 34 68 274
325 334 353 343 248 275 278 354 5 351 157 239 293 294 148 205 253 286 294 307 297 135 261 266 286 269 284 242 164 353 130 89 339 10 339 326 311 354 50 56 78 179 193 192 197 177 242
285 309 318 336 319 237 239 308 11 342 198 248 201 258 317 284 243 241 249 272 290 283 216 218 231 234 298 288 197 212 85 162 212 80 286 356 313 13 84 40 351 8 160 187 222 244 261
270 266 279 307 343 305 215 224 113 2 215 250 268 302 356 308 291 294 299 240 268 283 232 225 233 337 326 306 20 359 155 208 111 135 272 118 334 326 241 134 256 269 249 249 226 245 286
265 266 271 300 313 333 283 216 189 193 224 242 235 274 263 290 304 291 266 282 243 304 81 329 329 300 225 72 30 17 43 31 68 150 198 186 232 276 108 191 288 268 265 216 212 211 325
259 266 266 277 293 311 323 218 201 207 216 309 310 351 274 266 272 279 288 293 317 317 298 64 311 303 88 201 168 87 78 87 71 37 20 253 260 31 269 341 252 135 35 343 164 131 168
254 259 261 268 276 274 307 265 205 202 217 269 283 275 300 281 273 288 296 240 267 323 54 97 48 341 202 242 207 157 182 187 100 14 354 334 293 153 128 232 318 156 199 149 168 179 192
250 253 259 260 270 257 262 293 256 220 204 244 265 257 247 292 248 309 319 305 241 206 141 104 208 73 311 245 242 232 206 190 157 156 241 284 323 75 118 122 229 122 134 95 62 269 339
244 247 250 258 262 261 217 263 262 262 203 213 270 223 234 248 269 293 309 322 287 299 84 116 165 197 299 238 234 218 262 13 182 195 158 171 160 195 218 203 286 115 132 95 126 223 159
239 240 243 251 254 252 238 216 217 79 223 202 255 234 223 228 266 301 311 311 317 292 215 109 136 223 171 254 217 206 239 135 327 73 166 165 149 201 226 149 268 127 99 198 178 53 107
239 237 236 242 250 249 239 226 237 237 154 212 249 237 231 225 299 256 275 259 235 304 311 181 323 150 201 211 205 53 133 102 245 200 13 234 198 186 157 216 147 181 86 65 63 133 119